This demonstration page uses our WeatherBlox Daily Observations layout. Learn more.

41.55636, -103.73856

Hourly Observations for April 5, 2019

Temp ( °F °C ) Dew Point ( °F °C ) Humidity (%) Winds ( mph kmh ) Pressure ( in mb ) Visibility ( mi km ) Precip ( " mm )
12:58 am 00:58 Partly Cloudy 54 12.1 33 0.3 45 45 W 8 13 29.96 1015 10 16.0934 0 0
1:58 am 01:58 Mostly Cloudy 50 10 33 0.8 53 53 WNW 5 7 29.96 1015 10 16.0934 0 0
2:58 am 02:58 Cloudy 50 9.9 35 1.8 57 57 NNW 6 9 29.94 1014 10 16.0934 0 0
3:58 am 03:58 Cloudy 52 11.2 28 -2.4 39 39 Calm 29.94 1014 10 16.0934 0 0
4:58 am 04:58 Mostly Clear 47 8.6 31 -0.5 53 53 SW 8 13 29.93 1014 10 16.0934 0 0
5:58 am 05:58 Mostly Cloudy 50 10.2 30 -0.9 46 46 WSW 10 17 29.91 1013 10 16.0934 0 0
6:58 am 06:58 Mostly Cloudy 49 9.4 31 -0.4 51 51 WSW 9 15 29.9 1012 10 16.0934 0 0
7:58 am 07:58 Mostly Cloudy 48 9.1 30 -0.9 50 50 W 6 9 29.88 1012 10 16.0934 0 0
8:58 am 08:58 Cloudy 47 8.5 33 0.4 57 57 W 7 11 29.88 1012 10 16.0934 0 0
9:58 am 09:58 Mostly Cloudy 50 9.8 28 -2.5 42 42 S 3 6 29.85 1011 10 16.0934 0 0
10:58 am 10:58 Partly Cloudy 46 7.8 30 -1.2 53 53 SSW 12 19 29.85 1011 10 16.0934 0 0
11:58 am 11:58 Partly Cloudy 44 6.8 30 -0.9 58 58 SSW 10 17 29.85 1011 10 16.0934 0 0
12:58 pm 12:58 Mostly Cloudy 44 6.6 31 -0.8 60 60 WSW 10 17 29.89 1012 10 16.0934 0 0
1:58 pm 13:58 Mostly Sunny 48 9.1 33 0.6 56 56 SW 5 7 29.86 1011 10 16.0934 0 0
2:58 pm 14:58 Sunny 53 11.7 36 2 52 52 W 5 7 29.85 1011 10 16.0934 0 0
3:58 pm 15:58 Sunny 58 14.6 34 1.2 40 40 WSW 7 11 29.83 1010 10 16.0934 0 0
4:58 pm 16:58 Sunny 62 16.7 31 -0.7 31 31 W 8 13 29.83 1010 10 16.0934 0 0
5:58 pm 17:58 Sunny 62 16.9 31 -0.8 30 30 W 8 13 29.8 1009 10 16.0934 0 0
6:58 pm 18:58 Mostly Sunny 66 19 30 -1.2 26 26 W 8 13 29.78 1009 10 16.0934 0 0
7:58 pm 19:58 Partly Cloudy 65 18.5 28 -2 25 25 WSW 10 17 29.75 1008 10 16.0934 0 0
8:58 pm 20:58 Mostly Sunny 65 18.6 27 -2.8 23 23 SSW 13 20 29.73 1007 10 16.0934 0 0
9:58 pm 21:58 Partly Cloudy 67 19.2 26 -3.5 21 21 WSW 6 9 29.72 1007 10 16.0934 0 0
10:58 pm 22:58 Mostly Sunny 66 18.8 25 -4.1 21 21 SSW 9 15 29.72 1007 10 16.0934 0 0
11:58 pm 23:58 Mostly Sunny 64 17.5 28 -2.2 26 26 WNW 12 19 29.73 1007 10 16.0934 0 0

Powered by AerisWeather